CST,Max TemperatureF,Mean TemperatureF,Min TemperatureF,Max Dew PointF,MeanDew PointF,Min DewpointF,Max Humidity, Mean Humidity, Min Humidity, Max Sea Level PressureIn, Mean Sea Level PressureIn, Min Sea Level PressureIn, Max VisibilityMiles, Mean VisibilityMiles, Min VisibilityMiles, Max Wind SpeedMPH, Mean Wind SpeedMPH, Max Gust SpeedMPH,PrecipitationIn, CloudCover, Events, WindDirDegrees
2012-12-1,50,41,32,48,41,32,100,92,81,30.03,29.84,29.73,7,3,0,16,10,20,0.00,8,Fog,187
2012-12-2,57,42,26,43,35,25,100,81,44,30.00,29.91,29.83,10,6,0,17,5,25,0.00,2,Fog,169
2012-12-3,60,45,30,54,41,25,100,79,47,30.00,29.76,29.60,10,6,0,26,14,32,0.04,4,Fog,231
2012-12-4,42,32,21,25,20,12,86,62,42,30.38,30.18,30.00,10,10,10,15,6,20,0.00,0,,322
2012-12-5,41,29,17,30,18,12,79,60,39,30.37,30.18,29.92,10,10,10,24,10,30,0.00,2,,131
2012-12-6,42,38,32,36,32,25,87,73,66,29.99,29.91,29.86,10,10,7,16,8,20,0.08,6,Rain,308
2012-12-7,33,30,28,27,23,21,86,72,60,30.00,29.97,29.94,10,10,10,14,8,,0.00,7,,24
2012-12-8,33,30,26,30,26,23,100,85,65,30.02,29.97,29.91,10,9,5,15,6,22,0.00,6,Snow,86
2012-12-9,32,26,19,32,29,16,100,95,86,29.94,29.83,29.75,10,6,1,26,12,34,0.01,8,Snow,179
2012-12-10,19,14,8,12,8,3,92,80,68,29.96,29.91,29.85,10,9,5,22,13,31,0.00,4,Snow,303
2012-12-11,32,23,14,27,19,10,93,78,63,29.97,29.88,29.81,10,10,0,13,7,18,0.00,6,Snow,235
2012-12-12,46,32,17,27,20,14,93,59,37,29.97,29.94,29.88,10,10,10,24,11,32,0.00,1,,178
2012-12-13,41,32,23,25,18,14,93,58,39,30.09,29.99,29.92,10,10,7,17,11,22,0.00,0,,235
2012-12-14,50,34,19,30,24,19,100,67,35,30.09,29.94,29.72,10,9,5,21,6,26,0.00,2,,130
2012-12-15,42,37,32,41,37,30,100,92,61,29.71,29.54,29.45,10,4,0,18,11,22,0.44,8,Fog-Rain,142
2012-12-16,32,26,19,32,22,19,100,93,86,29.80,29.71,29.59,10,6,2,16,11,20,0.00,8,Snow,315
2012-12-17,28,24,21,27,24,19,100,93,86,29.78,29.71,29.66,10,6,1,9,4,,0.00,8,,84
2012-12-18,32,30,28,30,28,27,100,93,86,29.84,29.66,29.52,7,4,2,12,7,,0.00,8,Snow,76
2012-12-19,33,32,30,30,30,28,100,94,87,29.98,29.91,29.84,7,5,0,17,7,24,0.00,8,Snow,62
2012-12-20,30,19,8,30,15,5,100,89,79,30.04,29.83,29.74,4,2,1,36,22,46,0.00,7,Snow,334
2012-12-21,17,11,5,10,4,0,92,80,73,30.26,30.19,30.04,10,9,3,18,11,28,0.00,0,Snow,315
2012-12-22,30,18,6,19,14,3,86,76,60,30.18,30.01,29.92,10,10,10,12,5,17,0.00,0,,180
2012-12-23,19,14,10,16,12,7,93,87,79,30.06,30.00,29.94,10,8,2,14,7,18,0.00,5,Snow,26
2012-12-24,17,8,0,12,7,-6,93,82,72,30.24,30.04,29.92,10,8,2,22,9,28,0.00,5,Snow,332
2012-12-25,8,2,-4,1,-4,-9,85,77,67,30.42,30.36,30.25,10,10,7,14,9,18,0.00,0,,341
2012-12-26,15,8,0,9,1,-6,92,78,72,30.32,30.24,30.18,10,10,10,10,6,,0.00,2,,360
2012-12-27,21,12,3,19,10,-2,93,84,73,30.20,30.13,30.05,10,8,1,10,2,,0.00,5,Snow,87
2012-12-28,23,19,14,19,18,12,93,87,80,30.05,29.98,29.93,10,6,2,10,6,,0.00,8,Snow,23
2012-12-29,17,8,-2,12,6,-6,93,84,73,30.18,30.09,29.99,10,7,0,12,8,,0.00,4,Snow,280
2012-12-30,28,24,17,21,18,12,86,78,69,30.19,30.06,29.91,10,8,0,16,4,,0.00,1,Fog,183
2012-12-31,19,10,-4,14,5,-8,93,75,62,30.23,30.13,29.99,10,9,0,20,11,25,0.00,1,Snow,331